GW5186 Weather Reports


time (UTC)temp
F
wind
direction
speed
knots
gust
knots
rain 1hr
in
rain 24hr
in
rain mn
in
humidity
%
barometer
mb
20260507221226 83 245 0.9 5.2 0.00 0.00 0.00 77 1015.9
20260507220722 84 106 1.7 3.5 0.00 0.00 0.00 76 1015.9
20260507220221 84 179 1.7 2.6 0.00 0.00 0.00 77 1016.0
20260507215717 84 136 0.9 2.6 0.00 0.00 0.00 76 1016.0
20260507215214 84 47 3.5 5.2 0.00 0.00 0.00 76 1015.9
20260507214711 84 71 1.7 5.2 0.00 0.00 0.00 77 1015.8
20260507214208 84 155 2.6 5.2 0.00 0.00 0.00 77 1015.8
20260507213704 83 146 2.6 6.1 0.00 0.00 0.00 77 1015.6
20260507213201 84 47 2.6 7.0 0.00 0.00 0.00 77 1015.7
20260507212657 84 110 3.5 6.1 0.00 0.00 0.00 76 1015.7
20260507212154 85 209 0.9 2.6 0.00 0.00 0.00 76 1015.4
20260507211651 85 147 1.7 6.1 0.00 0.00 0.00 75 1015.5
20260507211146 85 211 0.9 5.2 0.00 0.00 0.00 75 1015.4
20260507210644 85 312 3.5 7.8 0.00 0.00 0.00 74 1015.6
20260507210140 85 18 3.5 6.1 0.00 0.00 0.00 74 1015.3
20260507205637 85 240 0.0 3.5 0.00 0.00 0.00 74 1015.5
20260507205134 86 110 1.7 7.0 0.00 0.00 0.00 74 1015.5
20260507204630 87 356 4.3 7.8 0.00 0.00 0.00 71 1015.3
20260507204128 86 225 1.7 8.7 0.00 0.00 0.00 73 1015.3
20260507203626 87 177 1.7 5.2 0.00 0.00 0.00 73 1015.3
20260507203123 87 179 3.5 5.2 0.00 0.00 0.00 72 1015.4
20260507202618 87 132 1.7 5.2 0.00 0.00 0.00 72 1015.6
20260507202115 87 118 3.5 7.0 0.00 0.00 0.00 71 1015.4
20260507201610 88 116 1.7 7.0 0.00 0.00 0.00 71 1015.3
20260507201107 88 135 1.7 3.5 0.00 0.00 0.00 71 1015.5
20260507200602 88 212 0.9 5.2 0.00 0.00 0.00 71 1015.5
20260507200059 88 59 2.6 7.8 0.00 0.00 0.00 71 1015.6
20260507195556 88 125 2.6 6.1 0.00 0.00 0.00 70 1015.7
20260507195054 88 158 1.7 11.3 0.00 0.00 0.00 71 1015.5
20260507194549 88 208 1.7 7.8 0.00 0.00 0.00 70 1015.7
20260507194045 89 92 3.5 9.6 0.00 0.00 0.00 69 1015.7
20260507193543 88 202 2.6 8.7 0.00 0.00 0.00 69 1015.8
20260507193040 88 186 0.9 5.2 0.00 0.00 0.00 70 1015.7
20260507192536 88 191 2.6 6.1 0.00 0.00 0.00 69 1015.8
20260507192033 88 142 1.7 8.7 0.00 0.00 0.00 70 1015.8
20260507191528 88 198 1.7 9.6 0.00 0.00 0.00 69 1016.1
20260507191026 89 276 2.6 7.8 0.00 0.00 0.00 69 1015.9
20260507190523 89 131 3.5 6.1 0.00 0.00 0.00 69 1016.0
20260507190022 89 116 1.7 6.1 0.00 0.00 0.00 70 1015.9
20260507185520 89 181 1.7 6.1 0.00 0.00 0.00 70 1015.9
20260507185016 88 232 3.5 6.1 0.00 0.00 0.00 70 1016.0
20260507184514 88 180 1.7 9.6 0.00 0.00 0.00 70 1016.2
20260507184012 89 66 3.5 7.0 0.00 0.00 0.00 69 1016.1
20260507183507 88 110 2.6 6.1 0.00 0.00 0.00 70 1016.1
20260507183005 89 78 2.6 8.7 0.00 0.00 0.00 69 1016.0
20260507182500 89 249 4.3 7.8 0.00 0.00 0.00 69 1016.0
20260507181957 89 167 2.6 13.0 0.00 0.00 0.00 70 1016.3
20260507181453 88 163 0.9 8.7 0.00 0.00 0.00 71 1016.2
20260507180950 88 94 2.6 7.8 0.00 0.00 0.00 71 1016.4
20260507180447 88 327 1.7 11.3 0.00 0.00 0.00 70 1016.4
20260507175943 89 307 1.7 8.7 0.00 0.00 0.00 70 1016.2
20260507175440 88 259 1.7 7.0 0.00 0.00 0.00 71 1016.5
20260507174937 89 22 3.5 12.2 0.00 0.00 0.00 69 1016.6
20260507174434 89 73 1.7 6.1 0.00 0.00 0.00 71 1016.6
20260507173932 88 199 4.3 7.0 0.00 0.00 0.00 70 1016.6
20260507173429 88 6 3.5 7.8 0.00 0.00 0.00 70 1016.6
20260507172925 89 12 1.7 9.6 0.00 0.00 0.00 70 1016.8
20260507172422 88 164 0.9 5.2 0.00 0.00 0.00 71 1016.7
20260507171918 89 216 3.5 9.6 0.00 0.00 0.00 69 1017.0
20260507171415 88 79 1.7 7.8 0.00 0.00 0.00 70 1017.1
20260507170912 88 112 2.6 12.2 0.00 0.00 0.00 70 1017.2
20260507170408 89 250 0.9 3.5 0.00 0.00 0.00 69 1017.4
20260507165904 89 318 3.5 7.0 0.00 0.00 0.00 70 1017.3
20260507165400 88 147 0.9 2.6 0.00 0.00 0.00 71 1017.3
20260507164856 88 74 4.3 7.8 0.00 0.00 0.00 70 1017.5
20260507164354 88 149 4.3 7.8 0.00 0.00 0.00 70 1017.6
20260507163851 89 64 3.5 8.7 0.00 0.00 0.00 70 1017.6
20260507163348 89 163 2.6 7.8 0.00 0.00 0.00 71 1017.7
20260507162845 88 102 1.7 6.1 0.00 0.00 0.00 70 1017.6
20260507162340 89 104 1.7 8.7 0.00 0.00 0.00 70 1017.9
20260507161837 88 325 1.7 6.1 0.00 0.00 0.00 71 1017.9
20260507161334 89 210 2.6 7.8 0.00 0.00 0.00 69 1018.0
20260507160830 88 88 4.3 7.0 0.00 0.00 0.00 69 1017.9
20260507160326 88 53 4.3 7.0 0.00 0.00 0.00 70 1017.9
20260507155823 88 195 2.6 6.1 0.00 0.00 0.00 72 1017.8
20260507155319 88 124 3.5 7.8 0.00 0.00 0.00 71 1017.9
20260507154815 88 115 5.2 7.8 0.00 0.00 0.00 71 1018.1
20260507154313 88 118 2.6 13.9 0.00 0.00 0.00 72 1018.0
20260507153809 88 244 1.7 7.0 0.00 0.00 0.00 71 1018.0
20260507153306 88 303 1.7 7.0 0.00 0.00 0.00 71 1018.0
20260507152802 89 112 1.7 3.5 0.00 0.00 0.00 71 1018.0
20260507152259 89 80 1.7 2.6 0.00 0.00 0.00 70 1018.4
20260507151754 89 17 0.9 5.2 0.00 0.00 0.00 70 1018.4
20260507151251 89 161 2.6 3.5 0.00 0.00 0.00 71 1018.2
20260507150748 88 316 1.7 2.6 0.00 0.00 0.00 71 1018.2
20260507150245 88 235 0.9 9.6 0.00 0.00 0.00 71 1018.3
20260507145741 88 237 2.6 7.0 0.00 0.00 0.00 71 1018.3
20260507145238 88 187 0.9 3.5 0.00 0.00 0.00 71 1018.3
20260507144735 88 240 0.9 6.1 0.00 0.00 0.00 71 1018.3
20260507144232 88 258 1.7 6.1 0.00 0.00 0.00 70 1018.4
20260507143729 88 288 1.7 5.2 0.00 0.00 0.00 72 1018.5
20260507143226 88 152 1.7 3.5 0.00 0.00 0.00 72 1018.4
20260507142722 88 155 1.7 7.0 0.00 0.00 0.00 72 1018.5
20260507142219 87 270 2.6 7.8 0.00 0.00 0.00 72 1018.6
20260507141715 87 341 0.9 5.2 0.00 0.00 0.00 72 1018.3
20260507141212 88 292 0.9 6.1 0.00 0.00 0.00 72 1018.6
20260507140708 87 286 0.9 5.2 0.00 0.00 0.00 73 1018.6
20260507140206 87 338 3.5 7.0 0.00 0.00 0.00 73 1018.5
20260507135703 87 209 1.7 6.1 0.00 0.00 0.00 73 1018.6
20260507135200 87 323 3.5 7.0 0.00 0.00 0.00 73 1018.6
20260507134657 86 208 0.9 2.6 0.00 0.00 0.00 74 1018.5
20260507134152 87 112 2.6 3.5 0.00 0.00 0.00 73 1018.6
20260507133648 86 353 1.7 5.2 0.00 0.00 0.00 74 1018.7
20260507133146 87 143 3.5 7.0 0.00 0.00 0.00 72 1018.7
20260507132643 87 164 1.7 5.2 0.00 0.00 0.00 74 1018.7
20260507132139 86 133 4.3 7.0 0.00 0.00 0.00 74 1018.6
20260507131636 86 100 2.6 6.1 0.00 0.00 0.00 75 1018.4
20260507131134 86 48 1.7 5.2 0.00 0.00 0.00 75 1018.3
20260507130630 87 196 0.9 2.6 0.00 0.00 0.00 73 1018.4
20260507130128 86 110 2.6 5.2 0.00 0.00 0.00 73 1018.2
20260507125627 85 139 2.6 3.5 0.00 0.00 0.00 74 1018.2
20260507125124 84 131 1.7 2.6 0.00 0.00 0.00 74 1018.4
20260507124620 85 80 1.7 3.5 0.00 0.00 0.00 72 1018.2
20260507124118 86 226 0.9 2.6 0.00 0.00 0.00 71 1018.2
20260507123616 86 116 0.9 2.6 0.00 0.00 0.00 71 1018.1
20260507123113 86 265 0.9 5.2 0.00 0.00 0.00 71 1018.1
20260507122608 86 239 0.0 2.6 0.00 0.00 0.00 71 1018.1
20260507122104 85 106 2.6 3.5 0.00 0.00 0.00 72 1017.9
20260507121600 85 230 0.0 5.2 0.00 0.00 0.00 73 1018.0
20260507121056 85 198 1.7 2.6 0.00 0.00 0.00 73 1017.9
20260507120552 85 193 0.9 1.7 0.00 0.00 0.00 73 1017.8
20260507120049 85 163 1.7 5.2 0.00 0.00 0.00 74 1017.8
20260507115545 84 239 0.0 2.6 0.00 0.00 0.00 75 1017.9
20260507115041 84 209 0.9 1.7 0.00 0.00 0.00 76 1017.6
20260507114537 83 238 0.0 0.9 0.00 0.00 0.00 78 1017.9
20260507114035 82 242 0.0 3.5 0.00 0.00 0.00 79 1017.7
20260507113532 82 163 0.9 2.6 0.00 0.00 0.00 79 1017.3
20260507113029 82 118 1.7 3.5 0.00 0.00 0.00 79 1017.4
20260507112526 82 217 0.0 1.7 0.00 0.00 0.00 80 1017.4
20260507112023 82 217 0.9 1.7 0.00 0.00 0.00 81 1017.4
20260507111520 81 202 0.0 0.0 0.00 0.00 0.00 83 1017.6
20260507111016 80 208 0.0 0.0 0.00 0.00 0.00 84 1017.3
20260507110513 79 242 0.0 0.9 0.00 0.00 0.00 86 1017.3
20260507110010 78 210 0.0 0.9 0.00 0.00 0.00 88 1017.4
20260507105507 77 208 0.0 0.0 0.00 0.00 0.00 89 1017.3
20260507105003 77 210 0.0 0.9 0.00 0.00 0.00 90 1017.3
20260507104500 76 205 0.0 1.7 0.00 0.00 0.00 90 1017.4
20260507103956 76 207 0.0 0.9 0.00 0.00 0.00 90 1017.3
20260507103453 76 231 0.0 0.9 0.00 0.00 0.00 90 1017.2
20260507102949 75 233 0.0 0.0 0.00 0.00 0.00 90 1017.4
20260507102446 75 231 0.0 0.0 0.00 0.00 0.00 90 1017.2
20260507101942 75 239 0.0 0.0 0.00 0.00 0.00 90 1017.2
20260507101437 75 239 0.0 0.0 0.00 0.00 0.00 90 1017.2
20260507100934 75 239 0.0 0.0 0.00 0.00 0.00 90 1017.2
20260507100432 75 239 0.0 0.0 0.00 0.00 0.00 89 1017.1
20260507095930 75 230 0.0 0.0 0.00 0.00 0.00 90 1016.8
20260507095427 75 230 0.0 0.0 0.00 0.00 0.00 90 1016.9
20260507094924 75 230 0.0 0.0 0.00 0.00 0.00 89 1016.8
20260507094420 75 218 0.0 0.0 0.00 0.00 0.00 89 1016.8
20260507093917 75 221 0.0 0.0 0.00 0.00 0.00 89 1016.8
20260507093415 75 234 0.0 0.9 0.00 0.00 0.00 89 1016.6
20260507092913 75 225 0.0 0.0 0.00 0.00 0.00 89 1016.6
20260507092409 76 246 0.0 0.0 0.00 0.00 0.00 89 1016.8
20260507091906 76 215 0.0 0.0 0.00 0.00 0.00 89 1016.8
20260507091402 76 218 0.0 0.0 0.00 0.00 0.00 89 1016.9
20260507090858 76 227 0.0 0.0 0.00 0.00 0.00 89 1016.7
20260507090354 76 214 0.0 0.0 0.00 0.00 0.00 89 1016.7
20260507085851 76 241 0.0 0.0 0.00 0.00 0.00 89 1016.9
20260507085348 76 218 0.0 0.0 0.00 0.00 0.00 89 1016.8
20260507084845 76 211 0.0 0.0 0.00 0.00 0.00 89 1017.1
20260507084342 76 216 0.0 0.0 0.00 0.00 0.00 89 1017.0
20260507083839 76 222 0.0 0.0 0.00 0.00 0.00 89 1016.9
20260507083335 76 213 0.0 0.0 0.00 0.00 0.00 89 1017.0
20260507082832 76 212 0.0 0.0 0.00 0.00 0.00 89 1016.9
20260507082327 76 216 0.0 0.0 0.00 0.00 0.00 88 1017.0
20260507081825 76 216 0.0 0.0 0.00 0.00 0.00 88 1016.9
20260507081321 76 216 0.0 0.0 0.00 0.00 0.00 88 1016.9
20260507080817 76 216 0.0 0.0 0.00 0.00 0.00 88 1017.0
20260507080314 76 216 0.0 0.0 0.00 0.00 0.00 88 1016.9
20260507075809 76 216 0.0 0.0 0.00 0.00 0.00 88 1016.9
20260507075307 76 218 0.0 0.0 0.00 0.00 0.00 88 1016.9
20260507074802 76 218 0.0 0.0 0.00 0.00 0.00 87 1016.8
20260507074300 77 217 0.0 0.0 0.00 0.00 0.00 88 1016.7
20260507073757 77 230 0.0 0.0 0.00 0.00 0.00 87 1017.2
20260507073253 77 235 0.0 0.0 0.00 0.00 0.00 87 1016.9
20260507072751 77 210 0.0 0.0 0.00 0.00 0.00 87 1016.9
20260507072248 77 215 0.0 0.0 0.00 0.00 0.00 87 1017.1
20260507071746 77 214 0.0 0.0 0.00 0.00 0.00 87 1017.2
20260507071241 77 232 0.0 0.0 0.00 0.00 0.00 87 1017.2
20260507070739 77 222 0.0 0.0 0.00 0.00 0.00 87 1017.3
20260507070236 77 233 0.0 0.0 0.00 0.00 0.00 87 1017.2
20260507065732 77 193 0.0 0.0 0.00 0.00 0.00 87 1017.3
20260507065229 77 219 0.0 0.0 0.00 0.00 0.00 87 1017.2
20260507064726 77 227 0.0 0.0 0.00 0.00 0.00 87 1017.2
20260507064226 77 227 0.0 0.0 0.00 0.00 0.00 87 1017.3
20260507063722 77 227 0.0 0.0 0.00 0.00 0.00 87 1017.5
20260507063219 77 227 0.0 0.0 0.00 0.00 0.00 86 1017.5
20260507062716 77 227 0.0 0.0 0.00 0.00 0.00 86 1017.5
20260507062213 77 223 0.0 0.0 0.00 0.00 0.00 86 1017.5
20260507061711 77 223 0.0 0.0 0.00 0.00 0.00 86 1017.6
20260507061209 77 214 0.0 0.0 0.00 0.00 0.00 86 1017.8
20260507060707 77 236 0.0 0.0 0.00 0.00 0.00 86 1017.7
20260507060203 77 218 0.0 0.0 0.00 0.00 0.00 86 1017.9
20260507055659 77 219 0.0 0.0 0.00 0.00 0.00 86 1017.8
20260507055155 77 214 0.0 0.0 0.00 0.00 0.00 86 1017.9
20260507054651 77 235 0.0 0.0 0.00 0.00 0.00 85 1017.8
20260507054148 77 235 0.0 0.0 0.00 0.00 0.00 85 1017.9
20260507053646 78 239 0.0 0.0 0.00 0.00 0.00 85 1018.0
20260507053144 78 243 0.0 0.0 0.00 0.00 0.00 85 1018.2
20260507052642 78 228 0.0 0.0 0.00 0.00 0.00 85 1018.3
20260507052138 78 223 0.0 0.0 0.00 0.00 0.00 85 1018.1
20260507051636 78 235 0.0 0.0 0.00 0.00 0.00 85 1018.2
20260507051132 78 232 0.0 0.0 0.00 0.00 0.00 85 1018.3
20260507050629 78 231 0.0 0.0 0.00 0.00 0.00 85 1018.4
20260507050126 78 248 0.0 0.0 0.00 0.00 0.00 85 1018.5
20260507045623 78 215 0.0 0.0 0.00 0.00 0.00 85 1018.5
20260507045119 78 210 0.0 0.0 0.00 0.00 0.00 85 1018.5
20260507044616 78 210 0.0 0.0 0.00 0.00 0.00 85 1018.7
20260507044113 77 234 0.0 0.0 0.00 0.00 0.00 85 1018.6
20260507043609 77 233 0.0 0.0 0.00 0.00 0.00 85 1018.7
20260507043106 77 233 0.0 0.0 0.00 0.00 0.00 85 1018.9
20260507042602 77 241 0.0 0.0 0.00 0.00 0.00 84 1019.1
20260507042057 77 240 0.0 0.0 0.00 0.00 0.00 84 1019.2
20260507041555 78 241 0.0 0.0 0.00 0.00 0.00 83 1019.0
20260507041052 78 240 0.0 0.0 0.00 0.00 0.00 83 1019.1
20260507040548 78 226 0.0 0.0 0.00 0.00 0.00 83 1019.1
20260507040044 78 234 0.0 0.0 0.00 0.00 0.00 83 1019.1
20260507035540 78 226 0.0 0.0 0.00 0.00 0.00 83 1019.4
20260507035037 78 226 0.0 0.0 0.00 0.00 0.00 82 1019.4
20260507034534 79 224 0.0 0.0 0.00 0.00 0.00 82 1019.2
20260507034032 79 226 0.0 0.0 0.00 0.00 0.00 82 1019.3
20260507033529 79 214 0.0 0.0 0.00 0.00 0.00 82 1019.3
20260507033027 78 219 0.0 0.0 0.00 0.00 0.00 82 1019.3
20260507032524 78 226 0.0 0.0 0.00 0.00 0.00 81 1019.2
20260507032020 78 226 0.0 0.9 0.00 0.00 0.00 81 1019.4
20260507031516 78 217 0.0 0.0 0.00 0.00 0.00 81 1019.5
20260507031014 79 248 0.0 0.0 0.00 0.00 0.00 81 1019.3
20260507030510 79 237 0.0 0.0 0.00 0.00 0.00 80 1019.5
20260507030008 79 241 0.0 0.9 0.00 0.00 0.00 80 1019.4
20260507025504 79 225 0.0 0.9 0.00 0.00 0.00 80 1019.5
20260507025002 79 225 0.0 0.0 0.00 0.00 0.00 79 1019.4
20260507024459 79 225 0.0 0.0 0.00 0.00 0.00 79 1019.4
20260507023955 79 242 0.0 0.9 0.00 0.00 0.00 79 1019.6
20260507023452 79 227 0.0 0.9 0.00 0.00 0.00 79 1019.4
20260507022949 79 204 0.0 0.9 0.00 0.00 0.00 78 1019.3
20260507022447 80 231 0.0 0.9 0.00 0.00 0.00 78 1019.4
20260507021942 80 226 0.0 0.9 0.00 0.00 0.00 77 1019.3
20260507021437 80 222 0.0 0.0 0.00 0.00 0.00 77 1019.2
20260507020935 80 237 0.0 0.0 0.00 0.00 0.00 76 1019.2
20260507020432 80 246 0.0 0.9 0.00 0.00 0.00 76 1019.1
20260507015929 80 218 0.0 0.0 0.00 0.00 0.00 76 1019.2
20260507015427 80 213 0.0 1.7 0.00 0.00 0.00 76 1019.0
20260507014924 81 217 0.0 0.9 0.00 0.00 0.00 76 1018.9
20260507014420 81 215 0.0 0.0 0.00 0.00 0.00 76 1018.9
20260507013916 81 233 0.0 0.0 0.00 0.00 0.00 76 1018.9
20260507013413 80 219 0.0 0.0 0.00 0.00 0.00 76 1018.7
20260507012911 80 227 0.0 0.0 0.00 0.00 0.00 75 1018.9
20260507012408 81 238 0.0 0.0 0.00 0.00 0.00 75 1018.9
20260507011904 81 203 0.0 0.0 0.00 0.00 0.00 74 1018.8
20260507011401 81 222 0.0 0.0 0.00 0.00 0.00 74 1018.7
20260507010901 81 203 0.0 0.0 0.00 0.00 0.00 74 1018.6
20260507010356 81 223 0.0 0.9 0.00 0.00 0.00 74 1018.5
20260507005854 81 203 0.9 1.7 0.00 0.00 0.00 74 1018.5
20260507005351 81 212 0.0 1.7 0.00 0.00 0.00 74 1018.4
20260507004848 82 221 0.0 0.0 0.00 0.00 0.00 73 1018.4
20260507004345 82 207 0.0 1.7 0.00 0.00 0.00 73 1018.2
20260507003842 82 187 1.7 2.6 0.00 0.00 0.00 72 1018.3
20260507003337 82 203 0.0 1.7 0.00 0.00 0.00 72 1018.2
20260507002832 82 301 0.9 1.7 0.00 0.00 0.00 72 1018.2
20260507002328 82 154 0.9 3.5 0.00 0.00 0.00 72 1018.1
20260507001826 83 234 1.7 2.6 0.00 0.00 0.00 72 1018.1
20260507001323 83 210 0.9 2.6 0.00 0.00 0.00 71 1017.9
20260507000819 83 217 0.0 1.7 0.00 0.00 0.00 71 1017.8
20260507000315 83 219 0.0 2.6 0.00 0.00 0.00 71 1018.0
20260506235812 83 183 0.9 1.7 0.00 0.00 0.00 71 1017.8
20260506235308 83 208 0.9 1.7 0.00 0.00 0.00 71 1017.6
20260506234805 84 207 0.9 2.6 0.00 0.00 0.00 71 1017.5
20260506234302 84 206 0.9 1.7 0.00 0.00 0.00 70 1017.6
20260506233800 84 153 1.7 1.7 0.00 0.00 0.00 70 1017.6
20260506233256 84 201 2.6 2.6 0.00 0.00 0.00 70 1017.4
20260506232747 84 197 0.0 2.6 0.00 0.00 0.00 69 1017.4
20260506232247 84 137 0.0 1.7 0.00 0.00 0.00 69 1017.1
20260506231745 85 148 0.9 1.7 0.00 0.00 0.00 68 1017.1
20260506231243 85 230 0.0 3.5 0.00 0.00 0.00 68 1017.0
20260506230740 85 113 0.9 1.7 0.00 0.00 0.00 67 1017.0
20260506230237 85 170 1.7 2.6 0.00 0.00 0.00 66 1016.9
20260506225733 86 229 0.0 3.5 0.00 0.00 0.00 66 1016.8
20260506225230 86 240 0.0 0.9 0.00 0.00 0.00 65 1016.8
20260506224726 86 144 0.9 2.6 0.00 0.00 0.00 65 1016.6
20260506224224 86 164 2.6 3.5 0.00 0.00 0.00 64 1016.7
20260506223720 86 204 0.9 1.7 0.00 0.00 0.00 64 1016.4
20260506223216 86 237 1.7 3.5 0.00 0.00 0.00 64 1016.4
20260506222713 86 158 0.9 1.7 0.00 0.00 0.00 65 1016.3
20260506222208 86 228 0.0 0.9 0.00 0.00 0.00 69 1016.4